Regional Weather Roundup
Issued by NWS

Home | Current Version | Previous Version | Graphics & Text | Print | Product List | Glossary Off
Versions: 1 2 3 4 5 6 7 8 9 10 11 12 13 14 15 16 17 18 19 20 21 22 23 24 25 26 27 28 29 30 31 32 33 34 35 36 37 38 39 40 41 42 43 44 45 46 47 48 49 50

406
ASUS43 KDTX 240310
RWRMI
MICHIGAN HOURLY REGIONAL WEATHER ROUNDUP
NATIONAL WEATHER SERVICE DETROIT/PONTIAC MI
1100 PM EDT MON APR 23 2018

NOTE: "FAIR" INDICATES FEW OR NO CLOUDS BELOW 12,000 FEET WITH NO
SIGNIFICANT WEATHER AND/OR OBSTRUCTION TO VISIBILITY.

MIZ047>049-052>055-059>063-066>070-074>076-081>083-240400-
SOUTHEAST LOWER MICHIGAN

CITY           SKY/WX    TMP DP  RH WIND       PRES   REMARKS
ADRIAN         CLOUDY    56  44  64 SW8       30.18F
ALMA           FAIR      53  42  65 CALM      30.14S
ANN ARBOR      CLOUDY    55  45  68 S3        30.17F
BAD AXE        FAIR      53  29  40 CALM      30.16F
CARO           FAIR      58  39  49 S10G17    30.15R
DETROIT CITY   MOCLDY    57  44  62 S5        30.19R
DETROIT        CLOUDY    55  42  61 S5        30.18F
FLINT          FAIR      59  44  57 S12       30.16R
GROSSE ILE     CLOUDY    48  42  80 CALM      30.18S
HILLSDALE      FAIR      54  43  66 SE10G16   30.17S
HOWELL         FAIR      57  46  65 S8        30.17S

CITY           SKY/WX    TMP DP  RH WIND       PRES   REMARKS
JACKSON        CLOUDY    57  48  72 SE9G18    30.16F
LAMBERTVILLE   DRIZZLE   59  44  57 S3        30.18R
LANSING        MOCLDY    60  50  69 S12       30.16R
LAPEER         FAIR      58  39  49 S5        30.17S
MASON          CLOUDY    59  45  58 S9        30.16S
MONROE         DRIZZLE   55  45  68 SE3       30.18R
MT. CLEMENS    CLOUDY    50  45  81 S5        30.17R
PONTIAC        CLOUDY    57  45  64 SW7       30.17R
PORT HOPE        N/A     46  33  60 SE6       30.14F
PORT HURON     FAIR      55  36  47 S8        30.18F
TRI CITIES     FAIR      46  38  73 NE6       30.15S
MIDLAND        FAIR      48  35  61 CALM      30.14S
TROY           FAIR      59  44  56 SW3       30.19F
SAGINAW HB     FAIR      46  41  81 CALM      30.14S
$$
MIZ043>046-050>051-056>058-064>065-071>073-077>080-240400-
SOUTHWEST LOWER MICHIGAN

CITY           SKY/WX    TMP DP  RH WIND       PRES   REMARKS
BATTLE CREEK   CLOUDY    58  49  72 S12       30.15S
BENTON HARBOR  CLOUDY    59  49  69 SE3       30.12S
BIG RAPIDS     FAIR      58  34  40 CALM      30.12S
COLDWATER      CLOUDY    55  47  75 SE6       30.16S
FREMONT        FAIR      61  30  30 E6        30.10S
HOLLAND        FAIR      61  49  64 S8        30.12R
GRAND RAPIDS   CLOUDY    61  49  64 S10       30.13R
IONIA          FAIR      61  48  63 S9        30.13R
KALAMAZOO      CLOUDY    59  50  72 SE7       30.15R
LUDINGTON      FAIR      51  30  45 CALM      30.11S
MARSHALL       CLOUDY    57  47  71 SE8       30.15S
MOUNT PLEASANT FAIR      57  38  47 E6        30.13S
MUSKEGON       MOCLDY    60  45  57 S14G21    30.11R
SOUTH HAVEN    CLOUDY    60  50  68 SE6       30.12R
$$
MIZ016>042-240400-
NORTHERN LOWER MICHIGAN

CITY           SKY/WX    TMP DP  RH WIND       PRES   REMARKS
ALPENA         FAIR      39  31  72 CALM      30.18S
BEAVER ISLAND  FAIR      43  27  53 E3        30.16F
CADILLAC       FAIR      44  27  50 CALM      30.13S
CHARLEVOIX     FAIR      43  28  54 CALM      30.17F
FRANKFORT      FAIR      53  25  33 E7        30.13F
GAYLORD        FAIR      46  27  47 CALM      30.15F
HARBOR SPRINGS FAIR      43  28  54 E5        30.16S
HOUGHTON LAKE  FAIR      52  34  50 E6        30.15S
MANISTEE       FAIR      49  27  42 E3        30.12F
OSCODA         FAIR      43  28  56 CALM      30.16F
PELLSTON       FAIR      38  25  59 N5        30.17S WCI  34
ROGERS CITY    FAIR      35  29  78 CALM      30.18F
TRAVERSE CITY  FAIR      41  33  73 CALM      30.13F
$$
MIZ007>008-015-240400-
EASTERN UPPER MICHIGAN

CITY           SKY/WX    TMP DP  RH WIND       PRES   REMARKS
KINROSS        FAIR      46  19  34 SE7       30.17F
MACKINAC ISLAN FAIR      38  28  64 E3        30.17S
NEWBERRY       FAIR      44  21  39 S5        30.15S
S. S. MARIE    FAIR      50  22  33 E3        30.17S
MUNISING         N/A     43  28  55 S8        30.13S
$$
MIZ004>006-011>014-085-240400-
CENTRAL UPPER MICHIGAN

CITY           SKY/WX    TMP DP  RH WIND       PRES   REMARKS
MANISTIQUE     FAIR      38  24  56 CALM      30.15S
ESCANABA       FAIR      36  26  67 CALM      30.15S
MENOMINEE      FAIR      43  29  57 CALM      30.15S
SAWYER-GWINN   FAIR      46  25  42 S3        30.14S
$$
MIZ001>003-009>011-084-240400-
WESTERN UPPER MICHIGAN

CITY           SKY/WX    TMP DP  RH WIND       PRES   REMARKS
IRON MOUNTAIN  FAIR      50  26  39 SE5       30.12S
HOUGHTON       FAIR      44  27  51 CALM      30.11S
COPPER HARBOR    N/A     47  25  42 SW7       30.10F
IRONWOOD       FAIR      41  32  70 CALM      30.12S
$$

ABBREVIATIONS USED IN REMARKS
   TC - TEMPERATURE IN CELSIUS
  WCI - WIND CHILL INDEX
   HX - HEAT INDEX
  VSB - VISIBILITY





USA.gov is the U.S. government's official web portal to all federal, state and local government web resources and services.